This demonstration page uses our WeatherBlox Daily Observations layout. Learn more.

41.55636, -103.73856

Hourly Observations for September 15, 2019

Temp ( °F °C ) Dew Point ( °F °C ) Humidity (%) Winds ( mph kmh ) Pressure ( in mb ) Visibility ( mi km ) Precip ( " mm )
12:58 am 00:58 Clear 72 22.2 41 5.2 33 33 ESE 9 15 30.03 1017 10 16.0934 0 0
1:58 am 01:58 Clear 70 21.1 37 2.5 29 29 S 9 15 30.03 1017 10 16.0934 0 0
2:58 am 02:58 Clear 69 20.4 35 1.5 29 29 SSE 14 22 30.02 1017 10 16.0934 0 0
3:58 am 03:58 Clear 65 18.2 38 3.3 37 37 SSW 9 15 30.02 1017 10 16.0934 0 0
4:58 am 04:58 Clear 64 17.7 38 3.5 39 39 S 9 15 30.02 1017 10 16.0934 0 0
5:58 am 05:58 Clear 64 17.7 38 3.4 39 39 SSW 16 26 30.01 1016 10 16.0934 0 0
6:58 am 06:58 Clear 63 17 37 3 39 39 SSW 20 31 30.01 1016 10 16.0934 0 0
7:58 am 07:58 Clear 63 17.4 37 2.6 37 37 SSW 21 33 30.01 1016 10 16.0934 0 0
8:58 am 08:58 Clear 63 17.1 35 1.7 36 36 SSW 18 30 29.99 1016 10 16.0934 0 0
9:58 am 09:58 Clear 64 17.5 34 1.1 33 33 SSW 20 31 29.98 1015 10 16.0934 0 0
10:58 am 10:58 Clear 61 15.9 37 2.9 42 42 SW 14 22 29.98 1015 10 16.0934 0 0
11:58 am 11:58 Clear 60 15.8 36 2.2 40 40 SW 10 17 30 1016 10 16.0934 0 0
1:58 pm 13:58 Sunny 64 18 41 4.9 42 42 WSW 3 6 30.02 1017 10 16.0934 0 0
2:58 pm 14:58 Sunny 73 22.7 46 7.5 38 38 WSW 6 9 30 1016 10 16.0934 0 0
3:58 pm 15:58 Sunny 80 26.8 48 8.7 32 32 SW 15 24 29.99 1016 10 16.0934 0 0
5:58 pm 17:58 Sunny 86 30.1 49 9.3 27 27 SSW 10 17 29.94 1014 10 16.0934 0 0
6:58 pm 18:58 Sunny 88 30.9 46 7.8 24 24 SSW 9 15 29.93 1013 10 16.0934 0 0
7:58 pm 19:58 Sunny 88 31.1 48 8.8 25 25 S 8 13 29.89 1012 10 16.0934 0 0
8:59 pm 20:59 Sunny 89 31.4 49 9.6 26 26 S 7 11 29.87 1012 10 16.0934 0 0
9:59 pm 21:59 Sunny 89 31.4 48 8.9 25 25 S 17 28 29.85 1011 10 16.0934 0 0
10:58 pm 22:58 Sunny 87 30.5 46 7.5 24 24 S 15 24 29.85 1011 10 16.0934 0 0
11:58 pm 23:58 Sunny 85 29.6 46 7.6 25 25 S 9 15 29.85 1011 10 16.0934 0 0

Powered by AerisWeather